Regional Weather Roundup
Issued by NWS

Home | Current Version | Previous Version | Graphics & Text | Print | Product List | Glossary Off
Versions: 1 2 3 4 5 6 7 8 9 10 11 12 13 14 15 16 17 18 19 20 21 22 23 24 25 26 27 28 29 30 31 32 33 34 35 36 37 38 39 40 41 42 43 44 45 46 47 48 49 50

000
ASUS43 KDMX 280507
RWRIA

WEATHER ROUNDUP FOR IOWA
NATIONAL WEATHER SERVICE DES MOINES IA
1200 AM CDT THU MAY 28 2015

NOTE: "FAIR" INDICATES FEW OR NO CLOUDS BELOW 12,000 FEET WITH NO
SIGNIFICANT WEATHER AND/OR OBSTRUCTIONS TO VISIBILITY.

* - THESE STATIONS ARE NOT NWS STATIONS...THUS NOT UNDER NWS
QUALITY CONTROL.  THEY ALSO DO NOT REPORT WEATHER SUCH
AS PRECIPITATION OR FOG.

IAZ001>003-012>014-020>022-031>034-043>046-280600-
   NORTHWEST IOWA

CITY           SKY/WX    TMP DP  RH WIND       PRES   REMARKS
CARROLL *      MOCLDY    64  55  72 SW8       30.09R
CHEROKEE *     PTCLDY    59  58  96 CALM      30.07R
DENISON *      CLEAR     66  54  63 CALM      30.07R
LE MARS *      PTCLDY    66  54  63 S7        30.06S
ORANGE CITY *  CLEAR     64  52  63 CALM      30.06S
SHELDON *      CLEAR     64  54  68 S7        30.05R
SIOUX CITY     MOCLDY    63  53  70 E9        30.05S
SPENCER        CLEAR     64  54  69 S9        30.07R
STORM LAKE *   PTCLDY    64  52  63 S7        30.09R
$$

IAZ055>058-069>071-079>083-090>094-280600-
   SOUTHWEST IOWA

CITY           SKY/WX    TMP DP  RH WIND       PRES   REMARKS
ATLANTIC *     CLEAR     64  57  77 SW5       30.09S
AUDUBON *      CLEAR     61  55  82 CALM      30.10S
CLARINDA *     CLEAR     63  61  94 CALM      30.12R
COUNCIL BLFS * CLEAR     66  52  59 S7        30.09R
CRESTON *      CLEAR     66  57  72 S7        30.11S
HARLAN  *      CLEAR     63  57  82 CALM      30.12S
LAMONI         MOCLDY    72  57  59 S7        30.12R
RED OAK *      MOCLDY    64  55  72 SW3       30.10R
SHENANDOAH *   CLOUDY    64  57  77 SE8       30.10R
$$

IAZ047>049-059>061-072>074-084-280600-
   CENTRAL IOWA

CITY           SKY/WX    TMP DP  RH WIND       PRES   REMARKS
AMES           CLEAR     63  58  83 S5        30.10R
ANKENY *       CLEAR     63  61  94 S3        30.10R
CHARITON *     CLEAR     66  59  77 S6        30.13R
DES MOINES     MOCLDY    68  59  73 S7        30.10R
GRINNELL*      CLEAR     64  57  77 SE7       30.12R
KNOXVILLE *    PTCLDY    66  57  72 S6        30.11R
MARSHALLTOWN   CLEAR     66  57  72 S7        30.10R
PELLA *        CLEAR     65  61  88 S5        30.13R
PERRY *          N/A     65  60  84 S5        30.09R
$$

IAZ004>006-015-016-023>025-035-036-280600-
   NORTH CENTRAL IOWA

CITY           SKY/WX    TMP DP  RH WIND       PRES   REMARKS
ALGONA *       CLEAR     64  57  77 S9        30.07R
CLARION *      CLEAR     66 N/A N/A S9        30.08R
ESTHERVILLE    CLEAR     63  55  75 S8        30.06R
FORT DODGE *   CLEAR     61  55  82 S3        30.09R
MASON CITY     CLEAR     65  56  72 S7        30.09R
FOREST CITY *    N/A     59  55  88 CALM      30.08R
IOWA FALLS *     N/A     64  59  82 S8        30.11R
$$

IAZ007>011-017>019-026>030-037>042-050>054-066-280600-
   NORTHEAST IOWA

CITY           SKY/WX    TMP DP  RH WIND       PRES   REMARKS
CEDAR RAPIDS   CLEAR     64  59  83 S5        30.11R
CHARLES CITY * CLEAR     66  59  77 S8        30.09S
CLINTON *      CLEAR     66  57  72 S6        30.15R
DECORAH *      PTCLDY    68  57  68 S6        30.09R
DUBUQUE        CLEAR     62  57  83 S5        30.13R
MONTICELLO *   CLEAR     64  59  82 SE5       30.12R
OELWEIN *      CLEAR     64  59  82 S7        30.12R
WATERLOO       CLEAR     64  56  75 S5        30.09R
$$

IAZ064-065-067-068-078-280600-
   EAST CENTRAL IOWA

CITY           SKY/WX    TMP DP  RH WIND       PRES   REMARKS
DAVENPORT      CLEAR     63  58  83 S6        30.14R
IOWA CITY      CLEAR     64  59  83 CALM      30.13R
MT. PLEASANT * PTCLDY    63  59  88 S5        30.14R
MUSCATINE *    CLEAR     64  61  88 CALM      30.13R
QUAD CITIES    CLEAR     60  56  86 CALM      30.13R
$$

IAZ062-063-075>077-085>089-095>099-280600-
   SOUTHEAST IOWA

CITY           SKY/WX    TMP DP  RH WIND       PRES   REMARKS
BURLINGTON     PTCLDY    63  60  90 CALM      30.14R
FAIRFIELD *    CLEAR     64  57  77 S3        30.13R
FORT MADISON * PTCLDY    66  57  72 S5        30.15R
KEOKUK *       CLEAR     63  59  88 CALM      30.13R
OSKALOOSA *      N/A     63  58  83 S7        30.13R
CENTERVILLE *    N/A     63  63 100 S6        30.15R
OTTUMWA        PTCLDY    64  58  80 S7        30.12R
WASHINGTON *   CLEAR     66  57  72 S6        30.14R
$$

ABBREVIATIONS USED IN REMARKS
   TC - TEMPERATURES IN CELSIUS
  WCI - WIND CHILL INDEX
   HX - HEAT INDEX
  VSB - VISIBILITY
$$




USA.gov is the U.S. government's official web portal to all federal, state and local government web resources and services.